Starlink 2658

operational
NORAD ID: 48473 Int'l Des: 2021-040 Owner: SPXS Country: US Constellation: starlink
LEOCIRCULARSTARLINK_TYPE

Über Starlink 2658

Beschreibung wird geladen...

Live-Position

3D-Globus wird geladen...

Nächste Überflüge

Höhenverlauf

Altitude vs Time

uPlot chart will show altitude changes over time

Zweizeiliger Elementsatz

1 48473U 21040AX 25258.43991676 .00001518 00000-0 12081-3 0 9990
2 48473 53.0528 258.3475 0001297 90.7357 269.3780 15.06393069240075
Epoch: 15. Sept. 2025 • Age: 14 hours

Aktueller Status

Höhe 561.1 km
Geschwindigkeit 7.58 km/s
Subsatellitenpunkt -39.97°S, 148.14°W
Startdatum 9. Mai 2021
Alter 4.3 years
Typ internet

Technische Details

Klassifizierung Payload
Masse 260.00 kg
Trockenmasse 248.00 kg
Gesamtmasse 260.00 kg
Länge 0.20 m
Durchmesser 2.80 m
Spannweite 9.00 m
Form Box + pan
Hersteller SPXS
Bus-Typ Starlink
Phasenstatus In Orbit
Besitzer/Staat SPXS/US

Große Konstellationen

Loading constellations...